Regional Weather Roundup
Issued by NWS

Home | Current Version | Previous Version | Text Only | Print | Product List | Glossary On
Versions: 1 2 3 4 5 6 7 8 9 10 11 12 13 14 15 16 17 18 19 20 21 22 23 24 25 26 27 28 29 30 31 32 33 34 35 36 37 38 39 40 41 42 43 44 45 46 47 48 49 50
000
ASUS43 KLSX 210157
RWRMO

WEATHER SUMMARY FOR MISSOURI
NATIONAL WEATHER SERVICE SPRINGFIELD MO
900 PM CDT WED SEP 20 2017

NOTE: "FAIR" INDICATES FEW OR NO CLOUDS BELOW 12,000 FEET WITH NO
       SIGNIFICANT WEATHER AND/OR OBSTRUCTIONS TO VISIBILITY.
       CURRENT SKY AND/OR WEATHER CONDITIONS ARE NOT AVAILABLE FOR
       CHILLICOTHE AND FARMINGTON.

MOZ001>031-035>038-043-044-053-054-210300-
...NORTHERN AND WESTERN MISSOURI...

CITY           SKY/WX    TMP DP  RH WIND       PRES   REMARKS
KANSAS CTY INT MOCLDY    78  74  87 S6        29.83S
LEE`S SUMMIT   PTCLDY    83  75  77 S8        29.85R HX  90
ST JOSEPH      PTCLDY    75  73  93 N3        29.82R
CHILLICOTHE      N/A     77  77 100 CALM      29.84S

$$
MOZ066>068-077>081-088>096-101>105-210300-
...SOUTHWEST MISSOURI...

CITY           SKY/WX    TMP DP  RH WIND       PRES   REMARKS
SPRINGFIELD    CLEAR     80  69  69 S7        29.90R
JOPLIN         CLEAR     82  71  69 SE7       29.87R

$$
MOZ032>034-039>042-045>050-055>058-069>072-210300-
...CENTRAL MISSOURI...

CITY           SKY/WX    TMP DP  RH WIND       PRES   REMARKS
COLUMBIA       NOT AVBL
JEFFERSON CITY CLEAR     82  69  64 SE7       29.85R
ROLLA          CLEAR     80  69  69 SE8       29.92R
SEDALIA        CLEAR     79  74  84 S7        29.86R
WARRENSBURG    PTCLDY    79  72  78 CALM      29.84S

$$
MOZ051-052-059>065-210300-
...EAST CENTRAL MISSOURI...

CITY           SKY/WX    TMP DP  RH WIND       PRES   REMARKS
ST LOUIS INTL  CLEAR     87  69  54 S10       29.89R HX  91

$$
MOZ072>076-082>087-097>100-106>115-210300-
...SOUTH CENTRAL AND SOUTHEAST MISSOURI...

CITY           SKY/WX    TMP DP  RH WIND       PRES   REMARKS
CAPE GIRARDEAU CLEAR     80  71  74 S8        29.94R
POPLAR BLUFF   CLEAR     80  71  74 S5        29.93R
WEST PLAINS    CLEAR     81  71  71 SE8       29.97R

$$


USA.gov is the U.S. government's official web portal to all federal, state and local government web resources and services.